Location: Sweet Grass
(48.9965°N, 111.9649°W)
Time: 18:20:34
(UTC+00:00)

DX 1 - Pass Details

Date: 04 April 2023
Orbit: 615 x 625 km, 98.4° (Epoch: 04 June)

Event Time Altitude Azimuth Distance (km) Brightness Sun altitude
Rises 07:45:40 0° 356° (N) 2,899 ? -35.3°
Reaches altitude 10° 07:49:44 10° 318° (NW) 1,988 ? -35.2°
Enters shadow 07:49:51 10° 316° (NW) 1,978 ? -35.2°
